User: anonymous   Login
Location: Unspecified
(0.0000°N, 0.0000°E)
Time: 02:16:28
(UTC+02:00)
Language:

Cosmos 1538 Rocket - Orbit

View from above orbital plane
View from above orbital plane
View from above satellite
View from above satellite

Ground track
Ground track

The orbit data is extracted from the following two-line orbital elements,

1 14760U 84019B   15187.55562779  .00000057  00000-0  28675-4 0  9992
2 14760 074.0440 347.1792 0027660 020.0641 042.1592 14.35703593641459
Epoch (UTC): 06 July 2015 13:20:06
Eccentricity: 0.0027660
inclination: 74.0440°
perigee height: 753 km
apogee height: 792 km
right ascension of ascending node: 347.1792°
argument of perigee: 20.0641°
revolutions per day: 14.35703593
mean anomaly at epoch: 42.1592°
orbit number at epoch: 64145

The dashed part of the orbit path shows where the satellite is in the earth's shadow,  

DLR